When you browse on this site, cookies collect data to enhance your experience and personalize the content and advertising you see.
Visit our Privacy Policy to learn more. By continuing to use the site, you agree to this use of cookies and data.
  • In United Kingdom
  • List of Countries
  • For 7 days
  • Water Temperature
  • Satellite Maps
  • Weather Map
  • Weather Widgets
  • user-avatar
    Login

    Hourly Weather Zalaegerszeg

    Today, 19 April, Friday

    Time Temperature Precipitation Wind Pressure Humidity
    00:00 +11°C° 0 mm 1 mps 758 mmHg 74%
    01:00 +11°C° 0 mm 1 mps 758 mmHg 74%
    02:00 +10°C° 0 mm 1 mps 758 mmHg 75%
    03:00 +10°C° 0 mm 1 mps 758 mmHg 77%
    04:00 +9°C° 0 mm 1 mps 758 mmHg 78%
    05:00 +10°C° 0 mm 1 mps 758 mmHg 75%
    06:00 +11°C° 0 mm 1 mps 758 mmHg 72%
    07:00 +12°C° 0 mm 1 mps 758 mmHg 69%
    08:00 +14°C° 0 mm 2 mps 758 mmHg 63%
    09:00 +17°C° 0 mm 2 mps 758 mmHg 56%
    10:00 +19°C° 0 mm 2 mps 758 mmHg 49%
    11:00 +20°C° 0 mm 2 mps 758 mmHg 46%
    12:00 +20°C° 0 mm 2 mps 758 mmHg 42%
    13:00 +21°C° 0 mm 3 mps 757 mmHg 39%
    14:00 +21°C° 0 mm 3 mps 757 mmHg 40%
    15:00 +21°C° 0 mm 3 mps 757 mmHg 41%
    16:00 +21°C° 0 mm 3 mps 756 mmHg 42%
    17:00 +19°C° 0 mm 2 mps 756 mmHg 49%
    18:00 +17°C° 0 mm 2 mps 756 mmHg 56%
    19:00 +15°C° 0 mm 2 mps 756 mmHg 64%
    20:00 +15°C° 0 mm 2 mps 757 mmHg 65%
    21:00 +14°C° 0 mm 2 mps 757 mmHg 67%
    22:00 +13°C° 0 mm 2 mps 758 mmHg 68%
    23:00 +12°C° 0 mm 2 mps 758 mmHg 70%

    Tomorrow, 20 April, Saturday

    Time Temperature Precipitation Wind Pressure Humidity
    00:00 +12°C° 0 mm 2 mps 758 mmHg 71%
    01:00 +10°C° 0 mm 2 mps 758 mmHg 73%
    02:00 +10°C° 0 mm 1 mps 758 mmHg 72%
    03:00 +10°C° 0 mm 1 mps 758 mmHg 71%
    04:00 +9°C° 0 mm 1 mps 758 mmHg 69%
    05:00 +10°C° 0 mm 1 mps 758 mmHg 66%
    06:00 +11°C° 0 mm 1 mps 758 mmHg 62%
    07:00 +12°C° 0 mm 1 mps 758 mmHg 59%
    08:00 +14°C° 0 mm 1 mps 758 mmHg 52%
    09:00 +16°C° 0 mm 2 mps 758 mmHg 45%
    10:00 +17°C° 0 mm 2 mps 758 mmHg 38%
    11:00 +18°C° 0 mm 2 mps 758 mmHg 36%
    12:00 +19°C° 0 mm 2 mps 758 mmHg 35%
    13:00 +20°C° 0 mm 2 mps 757 mmHg 33%
    14:00 +20°C° 0 mm 2 mps 757 mmHg 33%
    15:00 +21°C° 0 mm 1 mps 757 mmHg 34%
    16:00 +21°C° 0 mm 1 mps 756 mmHg 34%
    17:00 +19°C° 0 mm 1 mps 756 mmHg 39%
    18:00 +16°C° 0 mm 1 mps 756 mmHg 45%
    19:00 +14°C° 0 mm 1 mps 756 mmHg 51%
    20:00 +13°C° 0 mm 1 mps 756 mmHg 54%
    21:00 +12°C° 0 mm 1 mps 756 mmHg 56%
    22:00 +12°C° 0 mm 1 mps 756 mmHg 59%
    23:00 +11°C° 0 mm 1 mps 756 mmHg 61%

    Day after tomorrow, 21 April, Sunday

    Time Temperature Precipitation Wind Pressure Humidity
    00:00 +10°C° 0 mm 1 mps 755 mmHg 64%
    01:00 +9°C° 0 mm 2 mps 755 mmHg 67%
    02:00 +10°C° 0 mm 1 mps 755 mmHg 68%
    03:00 +9°C° 0 mm 1 mps 754 mmHg 70%
    04:00 +9°C° 0 mm 1 mps 754 mmHg 71%
    05:00 +10°C° 0 mm 1 mps 754 mmHg 68%
    06:00 +11°C° 0 mm 1 mps 754 mmHg 65%
    07:00 +12°C° 0 mm 1 mps 754 mmHg 62%
    08:00 +14°C° 0 mm 1 mps 753 mmHg 55%
    09:00 +16°C° 0 mm 1 mps 753 mmHg 49%
    10:00 +19°C° 0 mm 2 mps 753 mmHg 42%
    11:00 +19°C° 0 mm 2 mps 752 mmHg 39%
    12:00 +21°C° 0 mm 1 mps 752 mmHg 36%
    13:00 +22°C° 0 mm 1 mps 751 mmHg 34%
    14:00 +22°C° 0 mm 1 mps 751 mmHg 34%
    15:00 +22°C° 0 mm 1 mps 751 mmHg 34%
    16:00 +22°C° 0 mm 1 mps 750 mmHg 34%
    17:00 +20°C° 0 mm 1 mps 750 mmHg 41%
    18:00 +18°C° 0 mm 1 mps 750 mmHg 47%
    19:00 +15°C° 0 mm 1 mps 749 mmHg 54%
    20:00 +14°C° 0 mm 1 mps 749 mmHg 56%
    21:00 +13°C° 0 mm 1 mps 750 mmHg 58%
    22:00 +12°C° 0 mm 0 mps 750 mmHg 60%
    23:00 +12°C° 0 mm 1 mps 749 mmHg 61%

    22 April, Monday

    Time Temperature Precipitation Wind Pressure Humidity
    00:00 +12°C° 0 mm 1 mps 749 mmHg 62%
    01:00 +11°C° 0 mm 1 mps 749 mmHg 63%
    02:00 +11°C° 0 mm 1 mps 748 mmHg 65%
    03:00 +10°C° 0 mm 1 mps 748 mmHg 67%
    04:00 +9°C° 0 mm 2 mps 748 mmHg 70%
    05:00 +10°C° 0 mm 2 mps 747 mmHg 68%
    06:00 +12°C° 0 mm 2 mps 747 mmHg 67%
    07:00 +12°C° 0 mm 3 mps 747 mmHg 65%
    08:00 +14°C° 0 mm 3 mps 747 mmHg 60%
    09:00 +17°C° 0 mm 4 mps 747 mmHg 54%
    10:00 +19°C° 0 mm 5 mps 746 mmHg 48%
    11:00 +19°C° 0 mm 5 mps 746 mmHg 45%
    12:00 +20°C° 0 mm 5 mps 745 mmHg 43%
    13:00 +21°C° 0 mm 5 mps 745 mmHg 41%
    14:00 +21°C° 0 mm 5 mps 744 mmHg 42%
    15:00 +21°C° 0 mm 5 mps 744 mmHg 44%
    16:00 +21°C° 0 mm 5 mps 743 mmHg 45%
    17:00 +20°C° 0 mm 5 mps 743 mmHg 50%
    18:00 +18°C° 0 mm 4 mps 743 mmHg 55%
    19:00 +17°C° 0 mm 4 mps 743 mmHg 60%
    20:00 +15°C° 0 mm 4 mps 743 mmHg 61%
    21:00 +15°C° 0 mm 5 mps 744 mmHg 62%
    22:00 +15°C° 0 mm 5 mps 744 mmHg 63%
    23:00 +14°C° 0 mm 5 mps 744 mmHg 65%

    23 April, Tuesday

    Time Temperature Precipitation Wind Pressure Humidity
    00:00 +14°C° 0 mm 5 mps 744 mmHg 66%
    01:00 +13°C° 0 mm 4 mps 743 mmHg 68%
    02:00 +13°C° 0.3 mm 4 mps 743 mmHg 72%
    03:00 +13°C° 0.3 mm 5 mps 743 mmHg 76%
    04:00 +12°C° 0.3 mm 5 mps 743 mmHg 80%
    05:00 +12°C° 1.7 mm 5 mps 743 mmHg 84%
    06:00 +10°C° 1.7 mm 6 mps 743 mmHg 87%
    07:00 +10°C° 1.7 mm 7 mps 743 mmHg 91%
    08:00 +11°C° 0.2 mm 7 mps 743 mmHg 88%
    09:00 +11°C° 0.2 mm 7 mps 743 mmHg 86%
    10:00 +12°C° 0.2 mm 7 mps 743 mmHg 83%
    11:00 +14°C° 0.3 mm 7 mps 743 mmHg 80%
    12:00 +15°C° 0.3 mm 7 mps 743 mmHg 77%
    13:00 +16°C° 0.3 mm 6 mps 743 mmHg 74%
    14:00 +16°C° 2.3 mm 5 mps 743 mmHg 80%
    15:00 +15°C° 2.3 mm 4 mps 742 mmHg 85%
    16:00 +16°C° 2.3 mm 3 mps 742 mmHg 90%
    17:00 +16°C° 0.8 mm 3 mps 742 mmHg 89%
    18:00 +16°C° 0.8 mm 3 mps 743 mmHg 88%
    19:00 +16°C° 0.8 mm 3 mps 743 mmHg 87%
    20:00 +16°C° 0.4 mm 3 mps 743 mmHg 88%
    21:00 +14°C° 0.4 mm 3 mps 744 mmHg 90%
    22:00 +14°C° 0.4 mm 3 mps 744 mmHg 92%
    23:00 +13°C° 0 mm 4 mps 744 mmHg 91%

    24 April, Wednesday

    Time Temperature Precipitation Wind Pressure Humidity
    00:00 +13°C° 0 mm 4 mps 745 mmHg 90%
    01:00 +13°C° 0 mm 5 mps 745 mmHg 89%
    02:00 +12°C° 0 mm 5 mps 745 mmHg 90%
    03:00 +12°C° 0 mm 5 mps 745 mmHg 91%
    04:00 +12°C° 0 mm 5 mps 746 mmHg 91%
    05:00 +13°C° 0 mm 5 mps 746 mmHg 89%
    06:00 +13°C° 0 mm 5 mps 746 mmHg 87%
    07:00 +14°C° 0 mm 5 mps 747 mmHg 85%
    08:00 +16°C° 0 mm 6 mps 747 mmHg 79%
    09:00 +19°C° 0 mm 6 mps 747 mmHg 73%
    10:00 +21°C° 0 mm 6 mps 748 mmHg 67%
    11:00 +21°C° 0.2 mm 6 mps 748 mmHg 64%
    12:00 +22°C° 0.2 mm 6 mps 747 mmHg 62%
    13:00 +23°C° 0.2 mm 6 mps 747 mmHg 60%
    14:00 +23°C° 0.2 mm 5 mps 747 mmHg 61%
    15:00 +23°C° 0.2 mm 5 mps 747 mmHg 61%
    16:00 +22°C° 0.2 mm 5 mps 747 mmHg 62%
    17:00 +21°C° 0.1 mm 5 mps 747 mmHg 69%
    18:00 +19°C° 0.1 mm 4 mps 747 mmHg 75%
    19:00 +18°C° 0.1 mm 4 mps 748 mmHg 82%
    20:00 +17°C° 0 mm 3 mps 748 mmHg 84%
    21:00 +16°C° 0 mm 3 mps 748 mmHg 87%
    22:00 +16°C° 0 mm 3 mps 749 mmHg 89%
    23:00 +14°C° 0 mm 3 mps 749 mmHg 91%
    Show more